TimePST,TemperatureF,Dew PointF,Humidity,Sea Level PressureIn,VisibilityMPH,Wind Direction,Wind SpeedMPH,Gust SpeedMPH,PrecipitationIn,Events,Conditions,WindDirDegrees,DateUTC
12:56 AM,28.9,27.0,92,29.92,10.0,Calm,Calm,-,N/A,,Clear,0,2012-11-29 08:56:00
1:56 AM,28.0,25.0,88,29.92,10.0,South,5.8,-,N/A,,Clear,190,2012-11-29 09:56:00
2:56 AM,27.0,24.1,89,29.91,10.0,SSE,6.9,-,N/A,,Clear,160,2012-11-29 10:56:00
3:56 AM,28.0,26.1,92,29.91,10.0,West,4.6,-,N/A,,Clear,260,2012-11-29 11:56:00
4:56 AM,26.1,24.1,92,29.90,10.0,Calm,Calm,-,N/A,,Clear,0,2012-11-29 12:56:00
5:56 AM,26.1,24.1,92,29.91,10.0,NE,5.8,-,N/A,,Clear,50,2012-11-29 13:56:00
6:16 AM,26.6,24.8,93,30.00,10.0,ENE,3.5,-,N/A,,Mostly Cloudy,60,2012-11-29 14:16:00
6:56 AM,24.1,21.9,91,29.91,2.0,ENE,4.6,-,N/A,,Mostly Cloudy,60,2012-11-29 14:56:00
7:03 AM,24.8,21.2,86,30.00,0.5,ENE,4.6,-,N/A,Fog,Light Freezing Fog,70,2012-11-29 15:03:00
7:18 AM,26.6,24.8,93,30.00,1.0,ENE,4.6,-,N/A,,Overcast,70,2012-11-29 15:18:00
7:29 AM,24.8,23.0,93,30.00,0.8,ENE,5.8,-,N/A,,Overcast,60,2012-11-29 15:29:00
7:47 AM,26.6,24.8,93,30.00,3.0,Calm,Calm,-,N/A,,Overcast,0,2012-11-29 15:47:00
7:56 AM,28.0,25.0,88,29.91,5.0,Calm,Calm,-,N/A,,Overcast,0,2012-11-29 15:56:00
8:56 AM,42.1,33.1,70,29.91,10.0,SSE,3.5,-,N/A,,Overcast,150,2012-11-29 16:56:00
9:56 AM,53.1,35.1,50,29.91,10.0,South,13.8,-,N/A,,Overcast,180,2012-11-29 17:56:00
10:56 AM,55.9,35.1,45,29.90,10.0,SSW,8.1,-,N/A,,Overcast,200,2012-11-29 18:56:00
11:56 AM,57.9,35.1,42,29.87,10.0,SSW,10.4,-,N/A,,Overcast,200,2012-11-29 19:56:00
12:56 PM,61.0,33.1,35,29.83,10.0,SSE,18.4,-,N/A,,Overcast,150,2012-11-29 20:56:00
1:56 PM,62.1,33.1,34,29.83,10.0,South,16.1,-,N/A,,Overcast,170,2012-11-29 21:56:00
2:56 PM,60.1,34.0,38,29.83,10.0,SSE,16.1,-,N/A,,Overcast,160,2012-11-29 22:56:00
3:56 PM,57.9,30.0,35,29.82,10.0,South,9.2,-,N/A,,Overcast,190,2012-11-29 23:56:00
4:56 PM,57.0,30.9,37,29.82,10.0,South,11.5,-,N/A,,Overcast,180,2012-11-30 00:56:00
5:56 PM,54.0,34.0,47,29.82,10.0,South,13.8,-,N/A,,Mostly Cloudy,170,2012-11-30 01:56:00
6:56 PM,51.1,32.0,48,29.82,10.0,South,8.1,-,N/A,,Scattered Clouds,180,2012-11-30 02:56:00
7:56 PM,50.0,33.1,52,29.81,10.0,SE,10.4,-,N/A,,Scattered Clouds,140,2012-11-30 03:56:00
8:56 PM,48.9,30.9,50,29.80,10.0,South,12.7,-,N/A,,Mostly Cloudy,180,2012-11-30 04:56:00
9:56 PM,48.0,30.0,50,29.79,10.0,South,4.6,-,N/A,,Overcast,190,2012-11-30 05:56:00
10:56 PM,52.0,26.1,37,29.78,10.0,SSE,12.7,-,N/A,,Overcast,150,2012-11-30 06:56:00
11:56 PM,54.0,30.0,40,29.76,10.0,South,20.7,27.6,N/A,,Clear,180,2012-11-30 07:56:00